GFSGBSN_sfc_30mbdewp_000.txt.gz
Dewpoint
49 49 49 50 50 50 50 50 50 51 51 51 51 51 51 51 51 52 52 53 53 53 54 54 55 55 52 34 28 28 41 64 65 51 32 25 20 24 26 30 29 27 28 42 45 45 47
49 49 49 49 49 50 50 50 50 50 50 50 50 51 52 51 51 52 52 53 53 53 53 54 55 55 46 24 28 30 48 59 51 40 32 22 21 29 29 29 25 24 38 43 46 46 48
49 50 50 49 49 50 50 50 50 50 50 50 50 50 51 51 51 51 52 53 52 52 53 55 54 56 46 27 29 37 41 44 41 32 29 26 25 27 26 25 25 41 41 43 45 47 52
50 50 50 49 49 50 50 50 49 50 50 51 51 51 50 50 51 52 52 52 51 52 57 55 55 56 35 39 39 42 42 29 28 32 26 24 25 21 23 25 37 39 41 39 44 47 52
50 50 49 49 49 50 50 50 49 50 51 51 51 51 51 52 52 52 52 51 51 56 56 56 54 49 36 43 37 41 39 28 23 25 25 24 25 20 21 20 37 36 37 39 42 46 49
50 49 49 49 49 50 50 50 50 50 51 51 51 51 51 52 52 51 50 51 51 55 57 56 55 44 38 31 35 36 35 27 21 18 20 18 16 19 21 21 32 36 37 38 41 43 47
49 49 48 49 48 49 49 49 49 49 50 51 51 51 51 51 51 50 49 39 30 31 48 32 34 36 34 33 36 34 30 27 17 10 8 12 12 14 20 18 28 36 38 38 41 42 44
49 49 49 49 49 49 48 48 49 49 50 51 51 51 51 51 50 50 48 23 31 28 17 24 26 31 32 36 30 31 30 28 24 22 9 14 10 16 21 23 24 35 35 37 36 38 43
48 48 49 49 49 49 49 48 50 50 50 50 50 50 51 49 49 45 35 24 33 28 19 21 27 27 28 33 29 28 30 25 21 21 10 9 11 16 21 24 23 27 29 26 35 40 45
48 50 50 49 49 49 49 49 49 50 50 50 50 50 49 48 30 42 29 34 33 31 21 22 26 27 32 35 30 31 30 27 17 19 12 8 10 16 21 25 25 23 24 23 32 37 34
49 49 49 49 49 49 49 49 49 49 49 49 49 50 49 47 43 35 25 39 35 30 16 21 25 29 29 27 22 27 29 25 26 16 13 11 9 12 21 20 25 21 24 25 30 34 36
48 48 47 48 49 48 49 49 49 49 49 49 48 48 48 46 45 42 42 40 31 22 15 19 29 23 26 27 23 22 26 24 25 19 11 13 12 14 11 21 25 23 19 25 29 32 30
48 47 47 48 49 48 49 48 49 49 49 48 48 48 48 46 26 40 36 19 18 16 20 15 20 21 18 21 23 20 22 21 22 20 19 14 8 13 18 16 23 20 20 17 19 25 23
48 48 48 49 49 48 48 48 48 48 48 47 47 48 47 47 46 44 28 9 15 18 16 22 21 19 13 19 20 19 18 23 20 18 17 13 8 10 15 16 18 20 19 18 13 16 25
48 48 48 49 49 49 48 48 48 48 48 47 48 44 42 43 47 41 16 -1 10 21 24 24 18 16 19 18 18 19 18 19 21 16 13 13 11 15 13 17 17 17 17 19 17 22 18
47 46 47 48 49 49 48 48 48 48 47 47 44 41 35 45 45 31 15 -4 7 21 21 10 15 18 13 18 15 16 17 19 16 18 14 13 10 11 12 17 18 16 20 16 17 14 15
46 46 46 47 48 48 48 47 48 48 47 47 39 21 27 46 35 25 8 3 4 12 14 5 16 18 17 13 16 17 16 18 17 15 14 14 12 10 14 12 11 17 17 18 19 18 13
47 46 47 47 47 48 48 47 48 48 47 43 39 -0 32 36 28 25 14 11 12 11 12 13 18 18 14 13 11 15 16 16 19 17 16 13 12 10 10 14 16 15 16 17 14 15 20
48 47 47 45 46 46 47 47 47 47 47 43 37 34 36 32 26 27 28 27 25 26 24 25 22 17 18 19 19 18 17 18 18 20 20 17 11 8 8 10 17 15 20 19 19 19 17
45 46 46 45 45 45 46 46 46 47 47 45 37 21 34 31 29 24 21 18 22 26 28 27 28 27 24 24 25 21 22 28 33 34 39 32 14 10 9 8 12 14 17 20 17 15 17
46 46 46 44 45 45 46 46 46 45 46 45 38 33 38 33 30 34 25 22 22 23 25 27 26 28 27 25 26 22 22 24 33 37 34 17 14 12 13 11 15 15 17 21 18 17 15
46 46 45 45 45 45 45 45 45 44 45 42 38 38 38 37 36 27 26 23 26 26 25 23 27 29 33 28 28 28 29 31 30 37 35 24 13 13 12 11 12 11 15 22 21 21 21
46 45 45 45 45 45 45 45 45 45 43 39 38 39 39 35 36 31 26 28 28 30 27 26 25 27 32 37 33 35 35 35 38 33 36 35 18 14 11 12 12 11 11 14 17 21 20
45 45 45 45 45 45 45 45 45 45 44 41 37 38 37 30 34 33 33 34 30 29 28 25 25 26 35 30 32 34 35 35 35 36 39 39 29 20 15 16 11 13 26 17 18 32 32
45 45 45 45 45 45 45 45 45 45 44 44 40 38 38 32 34 34 34 32 29 27 23 26 26 32 29 32 32 30 31 31 32 38 41 44 30 22 17 14 18 33 37 34 29 34 41
45 44 44 44 45 45 44 45 44 44 44 44 42 41 37 33 30 34 35 35 31 25 21 23 29 26 37 34 33 29 28 32 34 34 39 40 39 30 25 15 16 32 42 45 42 29 42
46 45 45 45 45 44 44 43 44 44 44 44 42 44 41 35 35 36 33 32 30 29 27 26 26 29 43 37 31 29 28 31 34 34 35 39 40 35 34 28 33 42 45 45 28 31 44
47 46 46 45 44 43 44 44 44 44 43 44 41 44 41 35 36 38 36 35 34 31 28 28 29 38 39 40 38 36 32 34 36 37 38 35 39 40 39 34 31 46 45 35 42 44 45
46 46 45 45 44 43 44 44 44 43 43 44 41 42 44 40 37 40 39 39 37 36 33 31 27 28 41 36 38 40 40 39 39 37 41 37 42 40 42 41 46 47 46 46 45 42 43

GFSGBSN_sfc_30mbdewp_006.txt.gz
Dewpoint
50 49 49 50 49 49 49 49 49 49 50 50 50 51 51 52 52 52 53 53 53 53 53 53 54 54 51 35 24 39 50 56 50 50 31 27 18 19 14 18 20 24 25 26 30 38 39
51 50 50 50 49 49 50 49 49 49 50 50 50 51 52 52 52 52 52 53 53 52 52 53 54 54 46 23 24 38 47 52 43 38 27 22 17 16 15 17 22 23 25 26 27 36 42
51 50 49 49 50 49 50 49 49 49 50 50 51 51 51 51 51 51 52 52 51 51 52 53 55 53 43 24 27 30 35 37 42 36 26 22 18 14 16 19 22 25 29 37 37 39 44
50 50 48 49 49 50 49 49 49 48 49 50 50 50 50 50 50 51 51 51 51 52 54 56 55 52 33 34 38 37 36 35 38 41 32 26 21 18 14 23 25 26 29 30 39 43 46
49 50 49 50 50 50 50 49 48 49 49 50 50 50 50 51 51 51 50 50 51 55 56 56 54 50 29 42 38 36 38 30 30 34 30 24 21 20 18 22 24 27 26 27 40 44 47
48 49 49 50 49 50 50 49 49 48 49 50 51 50 50 50 50 50 49 50 53 56 56 55 54 47 39 26 36 33 39 27 26 31 27 23 21 17 19 19 20 25 26 27 30 43 45
49 49 49 49 50 49 49 48 48 48 48 50 50 50 50 50 49 49 47 34 39 41 48 31 24 30 24 28 33 30 34 24 21 24 15 15 13 12 17 20 22 24 28 28 30 41 43
49 49 49 49 49 49 49 48 49 48 48 49 50 50 50 49 48 48 44 15 25 24 13 12 13 16 18 22 22 21 30 27 20 18 14 11 8 10 14 19 21 24 25 26 30 40 40
49 49 49 49 49 49 50 50 50 49 49 50 50 49 49 49 47 45 28 26 29 23 15 11 13 14 18 19 21 21 24 26 22 16 12 11 5 8 12 14 20 23 24 26 30 39 40
49 50 50 50 50 50 50 50 49 49 49 49 49 49 48 48 36 30 26 31 32 28 13 12 20 24 29 26 24 25 21 23 21 17 14 8 6 7 10 14 19 21 23 25 29 33 33
50 50 51 51 50 50 50 50 50 49 49 49 49 48 48 47 37 28 26 28 29 28 9 18 21 29 30 28 25 26 22 19 19 18 17 12 6 8 7 10 15 21 22 24 25 30 32
49 50 50 49 49 50 50 50 50 49 49 49 49 48 47 36 39 34 31 32 32 21 10 13 22 24 25 25 23 27 23 21 19 18 19 15 12 7 8 8 14 20 22 25 26 26 27
50 50 49 49 49 49 50 50 49 49 49 49 48 46 45 40 23 32 33 19 13 9 15 10 15 20 17 13 19 22 21 19 18 20 18 15 11 8 5 9 10 18 23 24 23 23 23
50 50 50 49 49 49 49 50 49 49 50 49 46 45 39 38 38 36 28 5 5 8 9 16 18 18 17 15 15 18 19 15 16 19 17 16 10 11 9 6 13 17 20 21 19 19 21
52 51 50 50 49 49 49 49 49 49 48 48 45 32 29 35 40 38 21 -2 3 6 10 7 9 13 14 15 14 17 17 17 14 18 17 15 15 12 9 10 10 16 18 21 20 20 17
51 51 51 50 50 49 49 48 48 49 48 46 39 32 26 35 45 37 16 2 -1 -0 7 14 10 10 9 8 13 13 13 16 16 17 21 20 17 17 13 12 10 12 20 19 20 20 18
50 50 50 49 49 49 48 48 48 48 47 44 36 23 32 45 44 34 14 4 2 -1 3 10 8 8 11 11 14 12 13 15 17 18 22 22 20 14 15 10 8 11 13 20 20 20 18
49 49 49 49 48 49 48 48 48 48 47 41 32 17 34 42 31 22 18 12 11 4 -2 -1 5 3 7 13 13 14 14 14 18 20 22 24 22 18 9 9 8 9 14 19 20 22 21
48 48 48 48 48 48 47 47 48 47 47 38 31 22 24 33 17 13 17 15 14 13 4 0 -2 3 5 8 11 12 11 12 13 18 20 22 22 20 19 9 9 6 9 15 19 20 22
48 48 48 48 47 47 46 47 47 46 46 39 31 17 17 32 23 24 21 24 21 17 14 8 6 5 2 7 10 12 14 12 17 17 33 28 19 20 17 17 12 9 8 8 12 16 19
45 46 46 46 47 47 46 47 47 46 45 40 30 21 31 17 27 34 33 29 23 18 20 17 15 17 11 10 12 14 17 19 25 27 31 34 28 24 20 17 16 14 10 10 8 10 15
46 46 46 46 46 46 46 46 47 45 45 39 33 31 34 29 27 25 22 25 25 21 23 23 21 16 15 16 17 15 15 17 15 22 23 30 31 29 25 22 19 17 16 11 8 9 10
46 46 45 45 45 45 45 46 46 45 45 38 35 34 32 24 20 21 19 21 23 29 27 24 26 26 25 24 27 28 28 30 29 26 27 30 32 33 26 24 23 20 19 16 12 9 10
46 46 46 46 45 45 45 45 46 45 45 42 39 35 33 24 18 21 22 25 25 26 29 28 26 24 27 28 27 27 27 28 29 30 32 35 38 35 29 31 24 20 21 20 15 10 12
45 45 46 46 46 45 46 45 45 46 46 45 43 38 36 28 23 21 22 24 26 27 28 30 26 24 26 25 24 23 23 27 26 27 29 33 35 32 28 26 27 27 27 20 16 14 12
45 45 44 44 46 46 45 45 45 45 45 45 44 43 38 31 23 25 24 30 28 27 24 25 29 30 27 21 23 24 20 21 21 25 31 32 35 33 30 26 26 34 43 45 44 28 18
45 45 45 44 45 46 45 45 44 45 45 45 43 44 40 34 30 28 24 24 27 27 26 26 32 28 33 34 26 24 21 21 19 26 31 34 35 28 29 30 30 44 44 45 36 26 20
45 45 45 45 46 45 45 45 44 44 43 44 43 45 41 36 36 35 30 27 31 32 28 30 29 33 34 38 31 25 24 23 22 29 37 35 33 28 33 34 29 46 44 41 46 48 46
45 44 45 46 45 45 44 45 44 44 43 45 41 43 45 40 35 36 34 32 32 28 28 30 29 30 28 37 39 38 38 35 28 23 37 31 31 30 35 32 48 47 48 50 48 48 48

GFSGBSN_sfc_30mbdewp_009.txt.gz
Dewpoint
51 51 50 50 50 49 50 50 50 49 50 50 51 51 51 51 51 52 52 53 53 52 53 53 53 55 51 33 24 44 51 58 52 43 40 28 27 25 27 22 23 25 28 27 28 33 34
51 50 49 49 50 50 50 50 49 49 49 50 50 51 52 51 51 51 52 53 52 52 52 53 54 55 46 26 21 33 34 43 37 39 30 26 26 23 22 22 22 24 25 25 27 26 34
50 50 49 50 50 50 50 50 49 49 49 50 50 51 51 51 49 50 51 52 51 51 52 54 54 52 36 27 22 23 35 34 33 32 28 23 22 17 17 19 21 24 24 28 29 28 32
49 49 50 50 50 50 50 49 49 49 49 49 50 50 51 50 49 50 51 51 50 52 55 56 57 49 31 27 30 26 25 26 29 31 27 21 17 17 17 20 22 22 24 24 30 29 33
50 50 50 50 50 50 50 49 49 49 50 50 50 50 50 51 50 50 50 49 50 55 56 57 54 47 28 37 32 30 29 29 28 26 30 24 21 16 17 16 18 24 22 24 30 32 37
51 50 49 49 49 50 50 50 49 50 50 50 50 50 50 50 49 49 48 48 50 56 56 54 50 43 35 27 28 30 31 28 23 26 25 23 18 16 15 18 18 24 24 25 33 30 37
50 49 49 50 50 50 50 50 50 50 49 49 50 50 50 49 49 48 46 33 38 46 46 33 31 26 25 25 32 28 30 26 20 25 18 16 11 9 15 19 21 23 24 23 25 29 34
51 50 49 50 50 50 50 50 51 50 49 49 50 50 49 49 48 47 46 21 21 20 14 14 17 18 19 18 18 25 29 21 16 18 19 12 9 9 15 19 20 21 22 24 27 30 32
50 50 50 51 51 51 51 51 51 50 50 50 50 50 49 48 46 45 20 23 22 21 14 11 12 12 12 13 13 16 19 24 16 14 15 8 7 9 12 18 20 21 21 22 24 36 35
50 49 51 51 51 50 51 50 50 50 50 50 50 49 49 47 35 24 22 26 23 21 14 8 13 12 15 15 12 14 18 17 22 16 12 11 7 6 8 14 18 19 21 22 23 32 32
51 51 51 51 50 50 50 50 50 50 49 49 50 49 48 46 36 28 19 20 19 22 9 13 17 21 21 21 23 21 22 17 19 17 14 10 7 6 7 9 16 17 20 22 23 28 36
52 51 51 51 50 50 50 50 50 50 49 49 49 48 47 35 34 33 27 24 22 17 11 13 19 22 24 23 18 23 20 18 19 17 15 12 11 6 6 8 14 16 19 21 20 23 22
52 52 52 51 51 50 49 50 50 49 49 49 49 47 44 40 25 24 23 19 11 10 13 11 12 15 16 15 16 20 18 15 15 14 15 15 12 11 5 6 10 15 18 19 19 18 18
52 52 52 52 51 51 50 50 50 49 49 49 48 44 39 34 34 33 26 12 7 11 11 9 10 15 12 12 13 17 17 14 15 15 13 14 12 13 9 6 7 12 15 16 18 18 19
52 52 52 52 52 51 51 50 50 49 49 49 46 33 28 27 30 30 21 7 8 11 10 9 11 10 12 11 11 11 16 15 14 14 12 13 15 13 11 7 5 8 12 17 17 20 19
51 51 51 51 51 51 50 50 50 49 49 47 40 36 26 27 35 31 21 12 8 8 7 7 8 9 11 12 12 12 13 15 14 13 15 15 14 15 10 8 6 3 10 14 18 18 17
49 49 50 50 50 50 50 49 49 49 48 46 39 23 26 31 37 32 18 14 13 11 7 4 8 10 8 8 9 11 12 11 12 15 14 13 16 16 16 11 8 4 4 12 17 18 17
48 49 49 49 50 50 49 49 49 48 47 42 32 25 27 35 31 27 25 21 18 13 10 5 3 8 12 11 10 10 11 12 12 14 14 15 16 18 16 15 12 8 6 6 15 20 18
48 48 48 48 49 48 48 49 48 47 47 38 31 28 26 21 16 17 20 20 19 19 16 10 5 3 7 9 10 12 12 13 14 15 16 16 17 17 19 17 13 12 10 7 7 16 21
46 46 46 47 47 47 47 48 48 47 46 40 34 23 20 21 20 15 13 15 17 17 17 14 12 8 3 4 7 9 12 13 14 14 27 22 20 19 18 19 14 9 10 7 6 7 14
47 47 46 46 46 46 46 47 47 46 45 41 34 26 22 24 21 25 30 33 26 30 27 21 17 13 7 4 5 7 10 12 12 14 16 20 21 21 20 20 19 14 7 6 5 8 10
46 47 47 47 46 46 46 46 47 45 45 40 36 30 31 27 26 25 26 23 20 23 27 28 24 18 12 10 8 6 8 13 16 12 19 20 21 24 21 18 17 15 15 11 8 6 7
46 46 46 46 47 46 46 46 46 46 45 41 40 39 34 26 23 21 18 24 23 17 26 32 33 34 29 21 26 26 24 13 16 21 22 23 25 28 26 25 23 19 16 15 15 13 9
45 45 46 46 46 46 47 46 46 46 45 44 41 41 36 25 22 24 27 23 26 26 29 27 28 33 32 30 27 26 26 26 26 21 19 23 26 26 25 26 22 22 23 21 17 16 15
45 45 45 46 45 45 45 46 46 46 46 46 44 39 37 27 23 22 25 25 27 23 22 20 23 29 30 26 24 25 23 24 24 25 28 29 28 26 27 27 35 33 34 33 33 24 18
45 45 45 45 45 45 45 46 45 45 46 45 45 44 39 33 27 30 30 29 30 25 24 18 24 29 32 27 22 22 19 19 20 18 21 28 32 32 31 26 24 26 40 40 36 27 24
45 45 45 45 46 46 45 45 45 45 45 45 45 46 40 34 36 32 28 32 29 33 32 33 31 29 27 24 21 20 17 17 16 17 18 20 25 26 28 28 28 38 39 40 29 30 47
46 45 45 44 46 46 46 45 45 45 45 44 42 45 42 37 36 35 32 29 27 27 26 37 26 31 29 29 26 21 18 17 19 21 22 20 24 23 26 25 24 43 40 35 46 47 47
47 46 46 44 46 45 45 44 45 44 44 44 41 44 45 39 36 37 35 33 31 29 26 25 28 32 30 34 36 38 38 39 24 23 22 22 24 24 25 28 47 48 46 48 47 46 46

GFSGBSN_sfc_30mbdewp_015.txt.gz
Dewpoint
51 50 51 51 52 52 51 50 51 51 50 50 50 50 50 50 50 51 51 51 52 51 51 51 53 54 50 39 33 31 46 56 55 44 36 30 24 23 23 30 30 32 36 39 42 41 40
51 50 50 50 51 51 50 50 50 50 50 50 50 51 51 51 51 51 51 51 51 51 50 51 53 55 50 19 20 21 43 48 43 40 31 29 27 26 26 29 29 29 29 33 33 42 39
52 51 50 51 51 51 50 50 50 50 50 50 51 51 51 51 51 50 51 51 50 50 49 51 55 54 44 21 20 34 35 41 39 33 30 27 29 29 26 27 28 26 25 24 23 25 39
53 52 51 51 52 52 52 50 50 50 51 51 51 51 51 51 51 51 50 50 49 49 50 52 56 51 36 29 27 24 22 22 34 30 31 28 26 27 25 24 25 24 21 19 22 24 27
52 52 52 52 51 51 52 52 51 51 51 51 51 50 50 50 50 50 49 49 49 50 52 57 55 52 40 37 33 27 22 23 27 29 29 28 25 23 21 19 20 19 18 19 20 23 30
52 52 51 51 51 52 52 51 51 50 50 50 50 50 50 49 49 49 48 47 47 52 56 56 51 46 45 32 31 28 26 26 23 21 22 24 25 21 19 16 16 17 17 18 19 25 31
53 52 51 51 52 52 52 51 51 50 50 50 50 50 49 49 49 48 46 41 33 38 48 44 42 34 24 26 30 27 25 23 21 18 18 22 21 20 18 14 16 18 18 19 20 28 41
53 53 53 53 53 53 52 51 51 51 50 50 50 50 49 49 49 46 47 38 29 18 18 17 15 24 36 38 34 26 26 22 20 20 23 19 19 21 20 17 14 16 18 19 21 29 38
54 54 53 53 53 53 53 52 51 51 51 50 50 49 49 49 46 45 30 27 25 19 14 13 13 14 14 18 29 30 26 25 24 22 21 18 21 22 19 17 17 15 17 19 20 29 37
53 53 53 53 53 53 53 53 52 51 51 51 50 49 49 49 36 35 32 31 28 20 13 13 12 11 13 12 15 23 28 25 24 21 19 17 20 19 17 14 13 17 19 19 20 21 32
53 53 53 53 53 53 53 53 52 52 51 51 50 49 49 48 42 39 33 33 29 23 12 16 13 12 11 9 12 20 28 21 22 24 17 14 18 19 16 10 9 12 20 19 20 20 31
53 53 52 53 53 53 52 52 52 52 51 50 50 49 48 42 39 39 37 32 28 16 13 15 11 9 8 8 7 10 23 20 15 22 21 20 18 13 16 14 7 8 13 18 20 20 20
52 52 52 52 52 52 51 51 51 51 51 50 50 48 46 44 37 31 38 31 16 13 18 15 13 13 8 7 7 7 8 10 9 9 12 14 17 19 14 13 10 6 7 11 15 18 18
51 50 50 51 51 51 51 51 51 51 51 50 49 46 43 41 41 41 38 21 14 17 15 17 16 15 14 12 8 7 11 8 10 10 11 10 11 17 18 12 10 5 5 8 14 17 18
50 50 50 50 50 50 51 51 51 51 51 50 48 39 37 35 36 38 31 23 16 17 19 17 16 14 14 16 16 10 12 10 9 9 12 12 13 19 18 16 11 9 5 6 9 17 18
49 50 50 50 50 50 50 50 50 50 50 48 43 39 38 38 36 32 28 24 21 19 21 22 19 16 15 15 15 17 12 15 15 13 16 16 16 18 17 15 13 8 10 6 5 6 12
49 50 50 50 50 49 49 49 49 49 49 46 42 33 30 28 28 29 24 24 24 24 25 22 21 20 19 17 16 14 14 16 16 18 17 15 15 15 17 14 11 11 5 6 7 8 10
49 49 49 49 49 49 49 49 49 48 48 42 36 30 29 30 25 26 23 24 26 26 28 27 26 25 23 22 19 17 14 12 15 16 16 15 13 12 13 16 15 12 11 7 7 10 14
48 48 48 48 48 49 49 49 49 48 48 42 35 32 32 29 20 21 22 22 23 20 19 18 21 24 25 24 23 21 20 20 13 12 17 17 13 12 14 14 14 13 12 13 7 11 10
48 47 47 47 48 48 48 49 49 47 47 43 38 28 25 28 24 21 20 26 29 30 30 26 26 27 29 29 30 27 26 25 20 11 21 27 17 12 13 15 15 17 14 13 10 6 6
46 46 46 47 47 47 47 48 48 47 46 43 38 31 28 28 31 30 26 32 27 24 27 28 26 31 32 30 34 31 32 33 30 24 17 19 17 16 17 17 16 13 16 13 11 9 9
47 47 47 47 46 46 46 47 48 47 46 41 36 32 33 31 31 27 26 20 22 20 23 27 28 35 35 32 37 35 34 34 32 30 28 27 22 22 19 20 14 13 16 18 12 11 12
47 46 46 46 46 46 46 47 47 46 46 40 40 39 38 35 29 27 27 23 27 29 31 33 30 30 31 32 38 38 36 34 33 32 30 26 25 22 17 21 21 19 14 16 20 17 17
48 47 47 47 47 46 46 46 47 47 46 43 42 42 36 29 29 25 26 24 24 29 25 28 30 25 30 34 33 34 33 32 32 30 28 25 25 27 19 23 19 24 23 23 21 23 20
48 47 47 47 47 46 46 46 47 47 46 45 44 43 37 31 30 29 25 26 28 29 24 27 27 30 38 34 32 33 28 28 26 26 25 25 23 24 21 20 21 22 23 23 22 22 22
48 48 48 47 47 46 46 46 46 47 46 45 46 45 41 32 30 29 30 29 26 29 30 28 31 37 39 34 35 31 29 29 28 27 22 23 23 25 20 18 17 23 26 37 35 30 44
47 47 47 47 47 46 46 46 46 45 46 46 45 45 41 33 35 34 31 32 32 32 32 32 36 32 38 32 31 29 30 32 28 29 25 21 29 28 23 16 20 29 32 36 29 39 46
48 48 48 47 46 46 46 46 45 45 45 46 44 45 43 37 37 35 34 34 32 31 29 33 34 35 35 33 30 32 31 31 33 34 33 31 29 26 30 27 26 45 40 35 44 47 44
48 47 47 47 47 46 45 44 44 44 44 45 39 42 45 42 38 39 39 39 37 34 33 35 34 36 37 37 31 34 32 36 38 33 35 32 42 41 32 37 49 47 44 48 47 47 49

GFSGBSN_sfc_30mbdewp_021.txt.gz
Dewpoint
51 51 51 51 51 51 51 50 50 50 50 50 50 50 50 50 50 50 50 50 51 50 51 51 51 52 50 35 17 13 57 63 63 49 40 36 32 31 23 23 30 43 41 37 43 43 51
52 52 52 51 51 51 51 51 50 50 50 51 51 51 51 51 51 50 51 51 51 50 50 51 51 52 44 5 12 22 25 52 48 48 42 36 29 27 24 22 23 29 30 30 33 40 45
53 53 52 52 52 52 52 52 52 51 51 51 51 51 51 51 51 51 50 50 50 50 50 51 52 52 47 9 16 25 33 38 47 43 38 37 31 25 23 21 24 26 26 26 26 28 43
54 54 53 53 53 53 53 52 52 53 52 52 52 51 51 51 51 51 50 49 49 50 52 53 53 52 21 33 33 23 19 17 32 41 32 33 32 27 27 28 26 23 22 22 24 25 41
55 54 54 53 53 53 53 53 53 53 53 52 52 51 51 51 51 50 49 49 49 53 53 53 52 50 19 39 42 33 25 18 20 31 36 35 30 28 25 24 23 20 21 22 22 23 41
53 53 53 52 53 53 53 53 53 53 52 52 52 51 51 51 50 49 48 49 49 54 56 55 53 43 38 21 42 36 31 22 18 21 25 28 28 25 23 21 20 20 19 20 19 31 40
52 52 51 51 52 53 53 53 52 52 51 51 51 51 51 50 49 48 47 42 30 30 42 37 40 35 30 31 35 34 27 22 21 25 24 26 27 24 24 22 21 20 19 19 20 25 39
52 52 51 51 52 52 52 52 51 51 51 51 51 51 51 50 48 48 42 28 31 31 27 27 26 26 30 32 26 25 26 18 20 19 22 23 23 25 25 23 21 19 18 18 17 19 25
51 51 51 51 51 52 51 51 51 51 51 51 51 50 50 49 47 39 38 31 35 34 23 19 20 20 19 26 27 24 26 21 20 20 20 20 19 21 22 22 20 18 17 17 16 18 33
51 52 51 51 51 51 51 51 51 51 50 50 50 50 49 48 31 41 32 36 36 36 16 16 15 15 18 26 26 25 28 22 22 20 21 21 20 19 21 21 21 20 19 16 14 15 14
51 51 50 50 50 50 50 50 50 50 50 50 50 49 48 48 42 38 29 37 39 26 19 22 15 15 15 14 13 20 27 27 22 21 20 19 19 17 19 20 21 20 20 18 18 16 16
49 49 49 50 50 50 50 50 50 50 50 50 49 48 47 44 44 40 40 40 31 16 16 18 14 11 12 12 9 17 20 26 26 22 21 19 22 19 20 20 20 21 19 14 16 17 14
49 49 49 50 50 50 50 50 50 50 50 50 48 47 46 45 34 39 40 33 14 14 18 18 19 20 18 10 9 13 15 21 23 21 21 21 21 20 21 20 21 20 17 14 11 11 12
48 49 49 49 49 50 50 50 50 50 50 49 48 46 43 40 41 43 38 22 14 16 16 22 23 21 16 20 11 14 18 21 24 20 21 21 20 21 19 19 18 18 17 12 8 7 10
48 48 49 49 49 49 49 49 50 50 50 49 47 41 41 39 39 40 32 19 14 18 23 23 22 19 22 24 23 22 17 20 22 22 18 19 19 19 23 20 17 15 15 15 10 15 12
47 47 48 49 49 49 49 49 49 49 49 49 43 41 39 40 36 37 31 23 23 25 24 25 22 24 23 25 23 24 22 19 21 25 19 15 12 14 18 20 19 17 14 11 8 9 8
47 47 48 49 49 49 49 49 49 49 49 47 39 34 32 34 33 33 26 28 27 26 25 23 22 22 25 25 24 23 24 27 32 30 26 19 13 13 13 13 16 15 15 12 10 7 7
47 48 48 48 48 49 49 49 48 48 48 43 37 28 30 35 26 26 26 28 29 27 28 28 26 25 25 26 25 22 23 27 34 33 32 30 18 13 12 15 13 15 14 13 11 8 7
48 48 48 48 49 49 49 48 48 48 47 42 35 34 37 31 27 25 28 28 28 28 27 27 27 27 31 28 23 31 32 33 35 33 36 35 26 12 9 9 13 14 16 14 13 13 12
47 47 47 48 48 48 48 48 48 48 47 42 36 29 31 30 31 30 28 26 29 31 28 29 26 32 32 30 31 30 29 35 32 31 38 32 27 23 15 12 14 13 15 16 14 12 12
47 47 47 48 48 48 48 48 48 48 46 41 36 31 32 28 29 31 29 27 29 28 32 31 28 31 32 30 32 31 32 34 31 35 32 32 28 25 25 25 23 16 14 14 14 14 12
47 47 47 47 47 48 48 48 48 47 46 40 34 34 35 32 32 29 27 26 29 26 26 27 34 31 28 29 28 26 29 32 30 32 28 31 28 28 26 22 20 18 15 15 13 13 12
47 47 47 47 47 47 47 48 48 47 45 40 40 39 37 33 32 30 26 26 27 28 29 31 29 29 26 30 32 32 32 34 32 31 30 30 30 28 24 24 23 16 16 15 14 14 13
47 47 47 47 47 47 47 47 47 47 45 41 40 39 36 29 29 29 29 28 28 29 29 30 28 28 30 34 36 33 33 32 31 31 32 29 30 29 26 25 16 17 17 16 15 16 16
47 47 47 46 47 47 47 47 47 47 46 44 44 42 37 30 30 29 29 29 30 31 29 28 28 30 34 35 30 26 26 28 28 30 31 32 30 27 24 24 24 21 23 16 16 16 20
46 47 47 46 46 46 46 46 46 46 46 45 44 44 39 33 31 32 31 31 30 30 29 31 31 31 36 31 31 24 19 28 18 30 30 32 30 27 25 22 19 22 45 48 23 15 26
47 47 47 47 46 46 46 45 45 46 46 45 43 44 40 35 36 34 31 30 32 31 30 29 31 33 36 31 29 25 24 29 24 23 29 28 30 28 25 24 24 43 51 50 27 18 44
48 47 48 47 46 46 46 46 46 45 45 45 42 44 41 36 34 35 35 33 32 32 30 29 30 33 32 29 28 28 28 28 27 30 29 31 31 29 28 26 24 51 51 47 50 54 47
48 48 48 48 47 46 46 46 46 46 46 46 42 43 44 40 37 38 38 37 35 34 33 34 30 32 35 32 31 31 30 32 31 27 32 29 35 34 33 30 50 52 52 56 57 56 57

GFSGBSN_sfc_30mbdewp_024.txt.gz
Dewpoint
53 53 53 52 52 52 52 51 52 52 52 51 51 51 51 51 51 51 51 51 51 50 51 51 51 52 50 34 14 60 62 62 70 55 58 53 59 53 40 42 49 52 49 44 41 42 53
54 54 53 53 52 52 52 52 52 52 52 52 52 52 52 52 52 51 51 51 51 50 50 51 52 52 44 2 9 25 59 62 65 54 45 42 43 39 29 26 31 29 34 32 31 32 41
54 54 53 53 53 52 53 52 52 52 52 51 52 52 52 52 51 51 51 50 50 50 51 52 52 51 46 3 15 23 52 47 54 47 41 38 32 31 28 24 23 23 24 27 28 29 34
53 53 52 52 52 53 53 52 52 52 52 52 51 51 52 51 51 51 49 50 50 51 53 55 53 51 16 28 33 28 22 38 47 46 36 39 34 28 25 26 25 23 23 22 24 27 34
53 53 52 52 52 52 52 52 51 51 52 52 51 51 51 51 50 49 48 49 51 55 54 54 51 49 14 38 39 31 20 20 36 42 39 34 32 28 26 22 21 22 21 22 23 25 34
52 52 51 50 50 51 52 51 51 51 51 51 51 51 51 50 50 49 48 48 50 55 53 53 52 42 35 25 38 39 28 18 21 31 31 32 30 28 25 21 12 18 20 20 21 29 40
50 51 50 49 49 50 50 50 50 50 50 51 50 50 50 49 48 47 46 37 29 30 33 43 41 35 32 29 32 33 29 21 24 24 23 27 28 26 24 22 19 21 20 20 20 26 39
51 51 50 49 49 49 49 49 49 49 50 50 50 50 49 48 47 47 38 31 31 31 29 29 28 29 35 31 25 26 25 18 19 18 24 24 25 27 27 24 22 21 20 20 18 21 21
50 49 49 49 50 50 50 50 50 50 50 50 50 49 49 48 47 39 38 32 36 36 28 23 26 25 24 26 24 23 24 21 18 19 23 24 22 27 27 25 23 21 21 19 19 18 26
49 50 51 50 50 50 50 50 50 50 50 50 50 49 48 48 30 41 27 36 38 38 20 19 17 17 24 25 22 26 25 21 21 18 21 21 23 24 25 24 23 21 20 18 16 15 15
50 50 49 49 49 50 50 50 50 50 50 50 50 49 48 47 41 36 29 39 39 29 16 23 15 17 22 19 16 23 28 26 20 20 21 20 20 20 21 21 23 22 21 19 17 15 15
49 48 48 48 48 49 49 50 50 50 50 50 49 49 48 43 43 41 41 40 32 20 18 20 13 13 15 14 12 21 23 27 24 21 21 21 23 21 20 21 22 22 19 17 18 18 15
47 47 47 48 49 50 49 49 49 50 50 49 49 48 47 45 34 40 42 33 16 18 20 20 21 22 20 15 11 16 20 23 20 20 19 21 21 21 20 18 21 21 19 16 13 14 14
47 48 49 49 49 49 49 49 49 50 49 48 48 46 42 41 40 40 37 20 14 16 16 23 24 22 19 24 22 22 17 19 25 22 20 19 18 20 21 18 18 19 18 15 10 10 12
47 48 48 49 49 49 49 49 50 49 49 48 47 41 38 38 37 39 32 16 15 18 23 23 24 22 23 25 24 22 19 18 25 20 20 20 20 21 21 20 20 19 17 17 12 15 12
48 48 48 49 49 49 49 49 49 49 49 48 43 39 35 39 35 36 30 23 23 26 27 24 23 24 23 24 23 23 22 33 30 30 27 19 20 19 22 20 20 16 17 17 14 12 10
47 48 49 49 49 49 49 49 49 49 48 47 38 32 30 36 34 31 22 27 27 29 28 26 23 22 25 24 23 21 24 34 34 33 32 28 13 13 19 21 20 17 14 14 15 13 9
47 49 49 49 49 49 49 49 49 49 48 42 36 26 29 33 25 26 22 25 29 31 29 27 27 29 28 27 25 23 29 34 32 35 33 34 25 18 15 15 20 21 18 14 13 12 10
47 49 49 49 49 49 49 49 49 48 48 43 35 33 36 31 25 27 29 26 26 31 31 28 26 30 31 29 23 31 30 35 32 32 36 32 26 15 14 17 16 13 19 16 16 15 13
47 48 47 48 48 49 49 49 49 48 47 42 35 28 31 31 31 30 29 25 26 29 33 33 30 32 32 30 32 29 32 35 32 35 37 33 28 24 20 20 24 19 16 15 16 14 14
47 47 47 47 48 48 49 49 49 48 47 41 35 29 32 26 27 29 28 27 28 27 29 33 34 33 28 29 27 28 27 29 30 34 30 30 26 27 27 27 26 24 22 20 16 15 13
47 47 47 46 47 47 48 49 48 47 45 40 33 34 35 32 32 30 27 25 26 26 27 27 32 33 29 27 28 27 29 30 29 31 27 30 24 29 26 25 25 24 24 22 20 16 16
47 47 47 46 46 47 47 48 48 47 44 40 40 39 36 34 31 30 27 27 26 28 28 30 31 29 28 28 32 31 30 29 31 31 28 28 27 25 21 26 25 19 18 19 18 16 15
47 47 47 47 46 46 47 48 48 47 45 42 40 40 35 30 31 29 30 28 28 29 29 30 30 28 29 33 34 33 34 33 32 32 32 28 30 28 21 24 17 20 24 24 20 16 17
48 47 47 47 47 46 46 46 47 47 46 44 43 41 36 29 29 28 28 26 29 30 29 30 29 29 30 33 29 24 21 28 29 30 30 31 28 25 17 21 21 20 33 42 43 33 20
47 47 47 47 47 46 46 46 46 46 46 45 44 43 40 34 29 31 31 30 30 28 30 30 30 31 35 31 29 23 16 22 22 29 30 29 29 26 25 20 16 23 44 49 50 36 32
47 47 47 47 47 47 47 47 46 46 46 45 43 43 41 35 34 33 31 30 31 29 28 29 30 30 34 28 26 25 22 27 21 22 26 28 29 26 25 25 24 27 49 52 31 33 54
48 48 48 48 48 47 47 46 46 47 47 45 42 44 42 37 34 34 34 33 31 31 28 29 29 32 34 29 26 26 27 27 26 21 25 27 27 26 26 26 22 47 46 44 50 55 54
48 48 48 48 48 48 47 47 47 48 47 47 42 43 45 40 38 39 38 36 34 34 32 34 30 31 32 30 30 30 28 29 30 25 30 25 30 29 26 25 35 52 52 54 55 53 54

GFSGBSN_sfc_30mbdewp_030.txt.gz
Dewpoint
53 52 51 51 51 51 50 50 50 50 50 50 50 50 51 50 50 50 51 51 51 51 51 51 52 52 49 31 15 26 62 57 58 46 43 45 50 46 43 47 48 50 44 43 44 43 39
52 51 50 49 49 50 50 49 49 49 49 49 50 50 51 51 51 51 51 51 51 50 51 52 52 51 40 20 11 15 43 48 51 46 43 45 48 46 43 44 45 39 44 41 36 31 32
51 51 48 48 49 49 49 49 49 49 49 50 50 51 51 51 51 50 50 50 49 51 55 55 52 49 39 25 12 21 45 49 52 49 42 44 46 47 38 37 32 38 26 24 24 26 28
51 50 48 48 49 49 49 49 49 49 50 50 50 51 51 51 50 50 49 50 51 55 56 53 53 47 32 25 24 33 42 49 54 50 43 44 44 47 37 28 24 25 23 23 28 25 26
49 49 48 48 48 49 49 49 49 50 50 51 50 50 50 50 50 49 49 49 53 56 54 54 49 43 28 30 18 19 44 44 52 48 46 43 44 39 37 33 22 22 24 27 28 27 28
48 48 48 48 48 48 49 49 49 50 50 50 50 50 50 49 49 49 48 47 55 54 52 52 45 39 31 22 23 14 27 32 49 43 38 37 32 26 30 25 21 21 22 26 28 28 27
49 48 48 48 48 48 49 49 49 49 49 50 50 49 49 49 48 48 42 34 36 41 31 38 38 30 31 26 33 18 15 34 41 40 27 27 23 20 17 20 21 21 21 24 25 27 25
48 48 48 48 48 48 48 49 50 50 50 50 50 49 48 48 48 46 37 28 30 31 27 26 26 29 37 36 31 24 15 28 28 31 26 23 20 19 18 16 19 19 19 20 24 24 24
48 48 48 48 48 48 49 49 50 50 50 50 49 49 48 48 46 39 34 33 36 35 27 23 25 24 26 29 28 25 19 20 23 25 21 18 18 19 18 18 18 17 18 19 20 23 23
47 49 49 49 49 49 50 50 50 50 50 50 49 48 48 47 36 33 27 32 36 36 24 12 20 24 25 27 25 28 15 17 18 19 17 16 17 19 17 17 16 14 16 16 16 18 19
48 47 49 49 49 50 50 50 50 50 50 50 49 47 47 47 37 29 31 34 36 35 2 20 18 22 23 24 24 24 25 13 11 15 15 15 15 18 17 18 18 15 10 14 15 15 18
47 46 48 49 49 50 50 50 50 50 50 50 49 47 47 38 34 31 33 35 36 21 2 17 15 16 18 22 20 23 26 17 15 14 16 15 17 17 19 20 19 18 14 15 16 12 12
46 47 48 49 50 50 50 50 50 50 50 49 48 46 44 37 29 33 33 31 15 6 13 21 21 21 20 16 19 19 22 24 23 18 15 16 15 18 18 19 20 19 18 13 10 9 8
46 48 49 50 50 50 50 50 51 50 50 49 47 45 38 35 32 33 31 20 5 11 22 24 23 22 20 21 19 16 20 21 22 21 16 15 13 16 18 18 18 18 16 9 6 2 4
47 48 50 50 50 50 50 50 50 50 49 48 45 31 29 29 32 34 26 8 5 24 26 23 22 21 20 22 23 20 16 19 22 22 18 16 16 15 18 19 18 20 17 12 7 10 7
47 48 49 50 50 50 50 50 50 50 48 47 38 29 26 29 30 30 18 14 20 24 25 24 21 23 23 24 23 21 17 28 23 23 30 23 17 17 17 18 18 17 18 12 10 8 7
46 48 49 49 49 50 50 50 49 49 48 46 33 24 27 30 28 17 12 16 19 20 24 23 22 23 24 25 25 22 26 28 28 28 32 27 21 19 17 17 16 16 16 15 12 9 5
47 49 49 49 49 49 50 50 49 48 47 39 31 16 29 29 17 19 16 21 22 19 21 23 24 21 23 26 25 26 29 31 30 31 29 28 24 21 18 18 17 16 17 16 12 14 11
48 48 48 48 49 49 49 50 49 48 48 39 30 28 29 27 18 19 20 20 21 21 22 23 27 29 26 26 25 27 30 30 28 30 32 31 23 20 20 20 20 17 17 17 16 14 16
48 48 47 48 48 48 48 49 49 48 47 41 31 22 22 25 26 22 21 20 19 21 23 21 33 34 30 22 23 26 26 26 25 26 32 32 27 23 19 20 21 20 19 18 18 16 14
48 48 48 48 48 48 48 49 49 48 46 41 32 25 29 23 23 25 24 22 19 20 22 21 31 34 32 28 25 22 26 25 25 27 26 26 26 28 27 26 25 23 20 20 19 19 17
48 48 48 48 48 48 48 49 49 48 46 37 30 30 31 29 27 26 22 23 21 24 22 21 23 25 28 31 30 31 27 25 24 26 25 24 26 27 25 24 23 22 24 23 22 22 21
47 48 48 48 48 48 48 49 49 48 45 38 38 37 36 33 29 25 22 23 23 24 24 26 24 23 21 26 29 29 28 25 24 25 25 24 21 23 21 23 22 22 23 23 23 24 23
47 47 47 47 47 47 48 48 49 48 48 45 41 40 36 30 28 27 27 25 23 24 25 24 24 23 25 28 28 25 23 21 20 20 24 24 23 20 19 21 18 21 23 23 23 23 24
47 47 47 47 47 47 47 47 48 48 49 47 45 42 37 31 28 28 26 26 25 26 24 24 25 27 28 27 22 18 16 17 17 17 18 21 23 18 18 17 18 20 20 21 23 23 24
47 48 48 47 47 47 47 47 47 48 48 48 47 46 41 34 29 30 29 28 26 25 24 23 25 28 28 27 23 17 8 8 9 15 15 15 23 19 15 17 15 18 19 22 30 26 30
47 48 48 48 47 47 47 48 47 48 49 49 46 48 41 36 35 33 30 30 30 29 28 25 26 26 27 25 20 16 11 13 10 9 20 14 15 15 14 13 16 18 27 40 26 38 44
48 48 48 49 49 48 48 48 49 49 50 50 46 48 42 37 36 35 33 33 32 32 29 27 27 27 26 27 19 16 14 13 13 11 10 16 15 13 13 11 9 14 17 19 35 43 44
48 48 49 49 49 49 48 49 49 50 51 51 46 47 47 41 38 38 39 37 36 35 33 35 29 29 30 29 29 29 26 26 23 17 18 15 15 14 14 12 17 21 17 25 34 35 38

GFSGBSN_sfc_30mbdewp_033.txt.gz
Dewpoint
50 49 49 49 50 50 50 50 50 50 50 50 50 50 51 51 51 51 51 52 51 50 51 51 52 52 50 34 21 44 61 59 41 43 31 42 44 47 44 41 43 44 44 43 43 40 38
51 49 49 49 49 50 50 50 49 49 49 50 50 51 51 51 51 51 51 51 51 50 51 53 54 52 44 30 23 18 31 44 37 44 29 37 41 45 43 40 41 42 43 42 41 39 37
50 49 48 49 49 49 49 49 49 49 49 49 50 51 51 51 50 50 50 51 50 54 56 56 55 49 38 33 22 11 34 38 39 40 29 33 36 42 42 39 40 41 35 40 40 36 31
49 49 49 49 49 49 49 49 49 49 50 50 50 51 50 50 50 50 50 50 51 56 55 55 53 47 37 33 35 18 31 37 41 42 33 32 34 39 41 38 33 38 37 31 32 31 30
49 49 49 49 48 49 49 49 49 50 50 50 50 50 50 49 49 49 49 49 52 55 54 53 50 44 36 29 25 28 27 38 42 43 41 35 37 39 39 35 27 26 27 29 28 30 29
49 49 48 48 49 49 50 50 50 50 50 50 50 50 50 49 49 48 48 47 50 54 53 50 47 40 37 28 26 21 24 35 42 43 41 38 37 34 37 36 27 23 23 26 28 30 28
49 48 48 48 49 49 49 49 49 50 50 50 50 50 49 48 48 47 44 29 33 44 44 39 37 34 30 28 24 17 30 35 41 40 37 38 35 35 29 36 31 26 22 23 27 29 29
47 48 48 48 49 49 50 50 50 50 50 50 50 50 49 48 48 46 35 27 30 31 26 23 20 19 28 31 29 18 24 27 39 36 31 31 31 27 22 20 27 27 22 21 24 27 29
47 47 49 49 50 50 51 51 50 50 50 50 50 50 49 47 47 37 28 25 28 30 25 17 16 16 16 31 30 27 14 25 33 36 26 19 19 20 14 14 16 18 20 20 20 25 27
47 48 50 50 50 50 51 51 51 51 51 50 50 49 48 47 36 27 22 24 27 30 22 8 16 18 17 21 27 29 13 20 27 31 31 22 18 16 16 14 12 10 15 18 19 20 22
47 48 50 50 50 51 51 51 51 51 51 50 50 48 47 47 36 28 24 22 26 30 6 12 17 23 20 18 19 25 23 12 19 22 25 23 19 15 15 14 13 11 12 13 17 18 19
47 48 49 50 50 51 51 51 51 51 50 50 49 47 47 32 29 22 23 22 27 22 6 14 15 18 19 20 20 23 23 13 19 17 18 20 17 14 15 15 14 13 11 10 11 12 14
48 49 49 50 51 51 51 51 50 50 49 49 48 46 45 34 23 22 24 21 13 6 6 20 21 21 17 18 21 21 24 15 15 15 14 16 16 14 14 15 15 15 13 10 6 7 9
48 49 50 50 50 51 51 51 50 49 49 48 47 45 37 27 22 23 24 15 6 5 20 23 22 22 21 21 18 19 22 23 15 14 13 14 14 15 16 14 16 16 12 8 7 5 5
48 49 50 50 50 50 51 51 50 49 48 47 46 28 26 21 23 23 21 8 4 18 22 20 20 19 18 20 21 18 19 21 22 15 14 16 16 16 16 16 17 17 12 11 7 6 3
48 49 49 50 50 50 50 51 50 49 48 46 40 27 24 21 24 23 17 8 12 17 16 16 16 20 23 24 22 21 17 19 21 21 23 22 19 18 16 16 16 17 15 10 9 7 6
49 49 49 50 50 50 50 50 50 49 48 44 36 20 24 23 23 16 7 8 12 13 13 13 13 16 22 26 28 24 22 26 27 26 24 23 22 21 18 15 16 15 16 14 10 7 6
49 49 50 49 50 50 50 50 50 49 48 37 28 20 26 24 16 11 10 14 16 12 12 15 17 18 18 24 29 27 27 30 27 29 26 25 25 23 18 16 17 16 15 18 13 13 7
49 49 49 49 49 50 50 50 49 49 48 40 29 23 23 22 15 13 14 13 16 15 13 16 15 25 29 28 30 34 33 32 26 28 31 29 26 24 22 18 18 16 15 15 16 13 14
49 49 49 49 49 49 49 50 49 49 47 42 30 21 20 20 18 17 16 16 16 23 17 16 21 24 26 24 23 27 32 31 26 26 31 32 29 25 22 20 18 17 16 15 16 15 13
48 48 48 49 49 49 49 49 50 49 47 42 31 26 27 21 20 20 20 18 18 20 17 16 21 25 23 24 27 33 33 29 26 28 28 28 29 28 25 23 23 18 17 16 15 16 14
48 47 48 48 48 49 49 49 50 49 47 41 36 31 30 28 24 25 21 21 20 17 17 15 16 20 21 23 25 24 32 30 28 29 27 27 25 28 26 25 27 23 22 18 16 17 17
47 47 48 48 48 49 49 49 49 49 47 42 43 41 37 30 26 23 24 21 18 19 19 23 23 19 18 22 25 23 25 25 25 24 24 26 25 28 27 27 26 24 23 22 20 18 18
48 48 48 47 48 48 49 49 49 49 48 46 43 42 38 31 30 28 23 23 25 21 21 21 20 20 22 22 22 21 21 21 21 21 21 23 27 26 23 26 23 25 25 23 23 23 23
48 48 48 48 47 48 48 48 49 48 48 47 46 42 38 32 31 30 27 24 25 26 22 20 20 20 23 21 18 15 14 15 16 17 18 19 23 23 21 22 22 22 23 24 23 23 25
48 48 48 48 48 48 48 48 49 48 49 48 47 47 40 35 32 34 34 31 25 25 25 29 26 24 23 22 22 18 10 9 10 13 15 16 20 21 22 20 20 22 23 23 27 23 26
48 48 49 49 48 48 48 48 48 49 49 50 48 48 42 36 37 35 36 35 32 31 29 26 26 24 24 25 25 20 10 15 10 10 13 13 15 16 18 20 21 23 27 29 24 38 35
48 49 49 49 49 49 48 49 49 49 50 50 48 49 43 38 38 38 37 37 34 32 31 29 26 24 21 25 22 21 13 13 9 10 12 18 13 13 16 16 17 21 20 25 34 41 42
49 49 49 49 49 48 49 49 50 50 50 51 47 49 48 42 39 40 39 39 37 36 34 36 28 28 28 30 30 27 22 19 20 16 12 11 15 15 14 14 21 22 23 23 25 32 34

GFSGBSN_sfc_30mbdewp_036.txt.gz
Dewpoint
50 49 50 50 50 50 49 49 49 49 49 49 50 50 51 51 50 50 51 51 51 51 51 52 52 53 50 40 30 35 55 57 39 27 35 33 40 44 47 46 43 43 53 50 48 45 49
50 49 49 49 49 49 49 49 49 50 50 50 51 51 51 51 51 51 51 51 51 51 54 56 54 53 44 36 34 34 40 46 32 29 32 30 37 41 46 44 41 42 46 46 47 41 37
49 49 49 49 49 49 49 49 49 50 50 51 51 51 51 51 51 51 51 51 50 51 56 57 56 51 38 34 32 19 28 41 35 33 29 28 33 38 43 43 41 39 40 41 41 39 36
49 49 49 49 50 50 50 50 49 51 51 51 51 51 51 51 50 50 50 50 50 52 57 55 56 49 38 38 39 34 12 24 32 33 32 26 28 35 39 42 39 37 39 37 38 39 36
49 50 49 49 50 51 51 51 51 51 51 51 51 51 51 50 49 49 49 49 49 53 55 55 52 44 38 37 36 33 25 27 31 35 34 29 27 29 33 38 37 36 34 36 36 37 33
48 49 49 49 49 50 51 51 51 51 51 51 51 51 50 49 49 48 48 46 47 55 54 51 49 43 40 33 31 32 30 22 30 35 35 32 28 26 29 34 34 31 28 32 33 31 31
48 48 49 49 49 50 51 51 51 51 51 51 51 51 50 49 48 48 45 26 20 40 26 35 39 33 31 33 27 25 28 22 33 36 35 35 30 26 28 33 35 31 25 25 29 30 28
47 48 49 50 51 51 51 51 51 51 51 51 51 50 49 49 48 47 42 20 19 22 20 22 21 22 28 31 29 24 24 22 31 35 36 34 32 30 29 31 32 33 28 22 22 26 30
48 49 51 51 51 51 51 51 51 51 51 51 50 50 49 48 47 40 20 17 18 20 19 17 16 15 14 19 26 27 19 24 28 34 36 33 32 32 30 30 26 32 30 25 21 22 28
49 50 51 51 51 51 51 51 51 51 50 50 50 49 48 48 33 30 19 16 16 20 15 9 10 11 11 8 17 28 19 29 29 32 35 33 31 30 29 28 25 22 28 25 23 21 22
50 50 51 51 51 51 51 51 51 50 50 49 49 48 48 47 37 29 17 16 17 21 9 10 11 20 12 6 13 18 27 22 26 24 33 32 25 22 24 24 16 13 16 21 19 19 19
49 50 50 50 51 51 51 51 51 49 49 49 48 47 47 34 32 28 16 16 17 15 5 16 19 22 17 11 9 15 25 22 22 23 28 32 28 19 16 16 13 12 10 9 11 14 17
48 49 50 51 51 51 51 51 51 50 49 48 48 46 45 39 27 18 17 16 6 6 5 16 20 20 21 21 13 12 22 24 15 19 22 27 29 26 18 14 14 13 10 9 8 9 11
48 50 51 51 51 50 50 50 50 50 49 48 47 45 40 34 22 18 17 13 7 5 9 17 16 16 18 20 21 15 18 23 18 14 18 19 18 22 18 15 14 12 11 9 8 8 7
49 50 50 51 51 50 50 50 50 49 49 48 46 37 31 27 21 19 17 10 8 14 16 12 12 14 18 22 26 22 17 21 22 14 17 17 17 19 19 14 14 14 11 10 7 7 4
49 50 50 51 50 51 51 50 50 49 48 46 41 36 33 25 20 20 16 9 7 12 11 9 7 9 13 15 21 26 26 18 21 17 16 18 16 17 17 16 13 13 15 11 10 8 8
49 50 50 51 51 51 51 50 50 49 48 46 38 25 24 24 21 19 13 5 10 9 8 5 5 6 8 28 26 27 28 33 27 25 21 17 18 17 17 16 14 13 15 14 11 8 8
50 50 51 51 51 51 51 51 50 49 49 40 36 28 25 22 16 11 8 12 13 15 19 11 12 9 19 28 27 32 35 37 37 28 26 24 16 17 22 18 16 15 15 18 14 14 10
50 50 50 50 50 51 51 51 50 49 49 43 35 30 25 19 15 12 12 11 10 20 20 23 13 11 18 20 25 34 37 39 34 29 29 31 26 21 23 23 17 16 15 16 17 13 15
49 49 49 49 50 50 50 50 50 50 49 44 36 29 29 23 20 19 15 12 14 18 23 27 22 15 15 20 21 33 33 36 34 31 33 31 30 25 22 23 22 18 16 16 15 16 15
48 48 48 49 49 50 50 50 50 50 49 43 33 31 32 26 26 24 19 16 21 21 29 23 14 25 24 19 22 27 33 29 33 33 28 29 29 29 26 26 22 16 16 16 16 18 17
48 48 49 49 49 50 50 50 50 49 49 37 37 39 38 34 29 25 24 18 23 16 12 17 18 20 19 13 18 24 27 28 33 29 26 27 28 29 29 29 27 25 17 17 16 15 16
48 48 48 49 49 49 49 50 50 49 48 40 39 41 39 36 30 28 27 25 20 17 19 19 17 16 16 15 21 20 20 21 24 23 24 25 28 28 27 29 28 25 24 18 16 16 16
49 49 48 48 48 48 49 49 49 49 48 45 43 41 36 31 30 29 29 31 27 23 22 20 17 16 20 20 19 16 16 16 18 20 22 22 24 29 27 28 26 28 28 26 23 18 17
49 49 47 47 48 49 49 49 49 49 49 47 48 41 37 32 33 32 30 33 32 30 22 25 25 30 33 19 15 20 17 13 15 18 18 20 21 24 25 26 29 28 27 26 24 24 22
48 48 49 49 48 48 48 48 49 50 50 50 48 46 40 34 33 35 37 34 34 35 25 23 28 26 20 19 17 18 11 10 8 12 16 18 21 23 25 23 22 26 26 26 25 23 30
48 49 49 49 48 49 48 49 50 50 50 50 49 48 42 36 38 37 35 36 34 33 30 27 28 24 22 25 26 24 16 17 13 9 12 15 19 19 21 23 24 28 27 25 24 39 44
49 49 49 49 49 48 49 49 50 50 50 50 48 50 43 38 38 39 38 38 39 36 34 32 28 34 29 28 26 32 26 27 19 15 18 15 16 18 19 20 22 29 27 32 40 40 38
49 49 49 49 49 49 49 49 50 50 51 51 47 50 48 41 39 41 42 43 42 39 38 38 32 30 30 33 32 28 25 22 20 16 17 16 21 19 18 19 27 26 25 25 26 28 34